Location: Campo Claro
(10.4907°N, 66.8285°W)
Time: 06:27:08
(UTC+00:00)

BREEZE-M DEB (TANK) - Pass Details

Date: 02 July 2022
Orbit: 341 x 14877 km, 49.6° (Epoch: 11 August)

Event Time Altitude Azimuth Distance (km) Brightness Sun altitude
Rises 23:07:52 0° 319° (NW) 18,242 12.4 -4.2°
Reaches altitude 10° 23:29:57 10° 318° (NW) 18,612 12.3 -9.1°
Maximum altitude 01:25:35 47° 257° (WSW) 8,928 9.4 -33.5°
Enters shadow 01:50:13 16° 187° (S) 5,838 8.2 -38.2°
